DW3212 Weather Reports


time (UTC)temp
F
wind
direction
speed
knots
gust
knots
rain 1hr
in
rain 24hr
in
rain mn
in
humidity
%
barometer
mb
20260505083108 54 0.0 0.0 0.00 0.00 0.00 60 1008.2
20260505081603 54 0.0 0.0 0.00 0.00 0.00 60 1008.3
20260505080107 54 0.0 0.0 0.00 0.00 0.00 60 1008.3
20260505074559 55 0.0 0.0 0.00 0.00 0.00 59 1008.2
20260505073101 55 0.0 0.0 0.00 0.00 0.00 58 1008.1
20260505071613 55 0.0 0.0 0.00 0.00 0.00 57 1008.1
20260505070058 55 0.0 0.0 0.00 0.00 0.00 57 1008.1
20260505064605 56 0.0 0.0 0.00 0.00 0.00 55 1008.1
20260505063055 56 0.0 0.0 0.00 0.00 0.00 55 1007.9
20260505061609 56 0.0 0.0 0.00 0.00 0.00 54 1007.9
20260505060104 55 0.0 0.0 0.00 0.00 0.00 55 1008.1
20260505054556 55 0.0 0.0 0.00 0.00 0.00 56 1008.2
20260505053100 55 0.0 0.0 0.00 0.00 0.00 55 1008.3
20260505051553 55 0.0 0.0 0.00 0.00 0.00 56 1008.2
20260505041603 55 0.0 0.0 0.00 0.00 0.00 56 1008.5
20260505034554 55 0.0 0.0 0.00 0.00 0.00 55 1008.5
20260505033057 54 0.0 0.0 0.00 0.00 0.00 56 1008.4
20260505031556 53 0.0 0.0 0.00 0.00 0.00 55 1008.4
20260505030112 53 0.0 0.0 0.00 0.00 0.00 55 1008.4
20260505024559 53 0.0 0.0 0.00 0.00 0.00 55 1008.6
20260505023055 54 0.0 0.0 0.00 0.00 0.00 55 1008.5
20260505021557 53 0.0 0.0 0.00 0.00 0.00 55 1008.5
20260505020100 54 0.0 0.0 0.00 0.00 0.00 54 1008.5
20260505014610 54 0.0 0.0 0.00 0.00 0.00 52 1008.4
20260505013058 55 0.0 0.0 0.00 0.00 0.00 52 1008.3
20260505011557 55 0.0 0.0 0.00 0.00 0.00 50 1008.2
20260505004557 55 0.0 0.0 0.00 0.00 0.00 51 1008.1
20260505003059 56 0.0 0.0 0.00 0.00 0.00 49 1008.0
20260505001601 57 0.0 0.0 0.00 0.00 0.00 48 1007.8
20260504234559 58 0.0 0.0 0.00 0.00 0.00 48 1007.4
20260504233106 59 0.0 0.0 0.00 0.00 0.00 47 1007.3
20260504231602 60 0.0 0.0 0.00 0.00 0.00 44 1006.9
20260504230109 60 0.0 0.0 0.00 0.00 0.00 43 1006.8
20260504224600 60 0.0 0.0 0.00 0.00 0.00 43 1006.8
20260504223117 60 0.0 0.0 0.00 0.00 0.00 42 1006.7
20260504221558 61 0.0 0.0 0.00 0.00 0.00 43 1006.6
20260504214558 62 0.0 0.0 0.00 0.00 0.00 42 1006.6
20260504213101 61 0.0 0.0 0.00 0.00 0.00 43 1006.7
20260504211651 62 0.0 0.0 0.00 0.00 0.00 42 1006.6
20260504210056 63 0.0 0.0 0.00 0.00 0.00 40 1006.7
20260504204604 62 0.0 0.0 0.00 0.00 0.00 41 1006.6
20260504203057 62 0.0 0.0 0.00 0.00 0.00 42 1006.9
20260504201611 62 0.0 0.0 0.00 0.00 0.00 41 1006.7
20260504200058 62 0.0 0.0 0.00 0.00 0.00 40 1006.7
20260504194559 62 0.0 0.0 0.00 0.00 0.00 40 1006.6
20260504193109 62 0.0 0.0 0.00 0.00 0.00 42 1006.8
20260504191610 62 0.0 0.0 0.00 0.00 0.00 42 1006.7
20260504190109 62 0.0 0.0 0.00 0.00 0.00 42 1006.8
20260504184557 60 0.0 0.0 0.00 0.00 0.00 41 1006.9
20260504183057 61 0.0 0.0 0.00 0.00 0.00 41 1006.8
20260504181603 61 0.0 0.0 0.00 0.00 0.00 41 1006.7
20260504180059 61 0.0 0.0 0.00 0.00 0.00 44 1007.1
20260504174556 61 0.0 0.0 0.00 0.00 0.00 44 1007.1
20260504173100 60 0.0 0.0 0.00 0.00 0.00 43 1007.2
20260504171601 59 0.0 0.0 0.00 0.00 0.00 43 1007.2
20260504120103 49 0.0 0.0 0.00 0.00 0.00 53 1008.6
20260504100104 42 0.0 0.0 0.00 0.00 0.00 65 1008.2